CZ-2D R/B (28738 NORAD) Tracking and Keplerian Element Data

This shows tracking and keplerian element data for the satellite.

Feedback or suggestion? Click here.




ElementValue
Catalog28738
NameCZ-2D R/B
Epoch Orbit73324
Epoch Day315.95201713
Epoch Year2018
RAAN346.0395
Inclination97.4394
Eccentricity0.0013124
Argument of Perigee44.1138
Mean Anonmoly316.1137
Mean Motion15.11657077
Decay Rate3.35E-06
L11 28738U 05024B 18315.95201713 .00000335 00000-0 23363-4 0 9997
L22 28738 97.4394 346.0395 0013124 44.1138 316.1137 15.11657077733249

Live tracking and technical data element details for CZ-2D R/B (NORAD 28738). CZ-2D R/B can be tracked NOW for your location showing map with azimuth and elevation plus other details from your city location.

Track the satellite on the map from your city or location and see movement details for azimuth, elevation, latitude, longitude, range, height, and movement on the map or in text.







IsCatalogInMostPopularTable: catalog: 28738, numindb: 42
Update: records affected: 1



GetName: 28738 CZ-2D R/B

Hit Count: updated at: Mon, 12 Nov 2018 21:45:58 GMT